EW7356 Weather Reports


Display with metric or nautical units.
time (UTC)temp
F
wind
direction
speed
MPH
gust
MPH
rain 1hr
in
rain 24hr
in
rain mn
in
humidity
%
barometer
mb
20260906205530 68 78 2.0 11.0 0.00 0.49 0.19 48 1015.2
20260906205029 68 344 5.0 12.0 0.00 0.49 0.19 49 1015.1
20260906204552 67 292 3.0 15.0 0.00 0.49 0.19 49 1015.0
20260906204031 67 326 4.0 15.0 0.00 0.49 0.19 49 1014.9
20260906203529 67 346 2.0 10.0 0.00 0.49 0.19 50 1014.9
20260906203044 67 342 2.0 14.0 0.00 0.49 0.19 53 1015.0
20260906202527 67 94 5.0 14.0 0.00 0.49 0.19 51 1015.0
20260906202030 68 273 2.0 15.0 0.00 0.49 0.19 57 1015.0
20260906201548 68 317 5.0 15.0 0.00 0.49 0.19 49 1015.1
20260906201027 69 187 3.0 9.0 0.00 0.49 0.19 53 1015.0
20260906200529 68 78 2.0 10.0 0.00 0.49 0.19 56 1014.9
20260906200044 68 17 3.0 10.0 0.00 0.49 0.19 55 1014.8
20260906195529 67 0 4.0 13.0 0.00 0.49 0.19 55 1014.9
20260906195030 66 333 3.0 13.0 0.00 0.49 0.19 54 1014.9
20260906194540 66 298 4.0 11.0 0.00 0.49 0.19 54 1014.7
20260906194030 66 277 2.0 10.0 0.00 0.49 0.19 56 1014.8
20260906193532 67 317 3.0 10.0 0.00 0.49 0.19 53 1014.7
20260906193042 68 58 3.0 13.0 0.00 0.49 0.19 51 1014.9
20260906192529 69 348 3.0 13.0 0.00 0.49 0.19 51 1014.7
20260906192027 69 308 1.0 10.0 0.00 0.49 0.19 52 1014.8
20260906191601 69 223 3.0 10.0 0.00 0.49 0.19 54 1014.6
20260906191028 69 360 5.0 10.0 0.00 0.49 0.19 55 1014.8
20260906190530 68 279 3.0 11.0 0.00 0.49 0.19 52 1014.7
20260906190048 68 49 3.0 13.0 0.00 0.49 0.19 53 1014.7
20260906185530 68 319 4.0 13.0 0.00 0.49 0.19 51 1014.8
20260906185030 68 276 5.0 12.0 0.00 0.49 0.19 53 1014.9
20260906184554 68 30 3.0 12.0 0.00 0.49 0.19 52 1014.9
20260906184035 67 348 3.0 11.0 0.00 0.49 0.19 54 1014.9
20260906183529 67 340 4.0 14.0 0.00 0.49 0.19 54 1014.9
20260906183041 67 338 4.0 14.0 0.00 0.49 0.19 57 1015.0
20260906182533 68 352 5.0 14.0 0.00 0.49 0.19 55 1015.0
20260906182028 67 313 4.0 15.0 0.00 0.49 0.19 57 1015.0
20260906181550 67 237 3.0 15.0 0.00 0.49 0.19 59 1015.0
20260906181031 67 336 2.0 11.0 0.00 0.49 0.19 60 1015.0
20260906180530 67 5 4.0 12.0 0.00 0.49 0.19 57 1015.1
20260906180105 67 313 4.0 12.0 0.00 0.49 0.19 57 1015.1
20260906175530 67 74 2.0 16.0 0.00 0.49 0.19 66 1015.1
20260906175029 67 9 5.0 16.0 0.00 0.49 0.19 60 1015.0
20260906174557 67 50 2.0 12.0 0.00 0.49 0.19 65 1015.1
20260906174030 66 324 3.0 12.0 0.00 0.49 0.19 64 1015.1
20260906173534 66 309 4.0 12.0 0.00 0.49 0.19 63 1015.1
20260906173058 66 51 3.0 12.0 0.00 0.49 0.19 63 1015.1
20260906172531 65 261 3.0 13.0 0.00 0.49 0.19 67 1015.3
20260906172029 65 36 3.0 14.0 0.00 0.49 0.19 65 1015.3
20260906171549 65 311 5.0 14.0 0.00 0.49 0.19 64 1015.5
20260906171031 65 11 3.0 12.0 0.00 0.49 0.19 66 1015.3
20260906170530 65 310 4.0 14.0 0.00 0.49 0.19 65 1015.4
20260906170053 65 327 5.0 14.0 0.00 0.49 0.19 64 1015.3
20260906165530 65 0 2.0 11.0 0.00 0.49 0.19 71 1015.4
20260906165029 64 315 4.0 11.0 0.00 0.49 0.19 71 1015.6
20260906164549 65 257 3.0 11.0 0.00 0.49 0.19 68 1015.5
20260906164030 65 298 4.0 11.0 0.00 0.49 0.19 67 1015.4
20260906163529 65 231 4.0 11.0 0.00 0.49 0.19 66 1015.6
20260906163057 65 63 4.0 11.0 0.00 0.49 0.19 69 1015.7
20260906162529 64 337 4.0 11.0 0.00 0.49 0.19 73 1015.7
20260906162029 64 329 3.0 11.0 0.00 0.49 0.19 74 1015.6
20260906161601 64 336 3.0 11.0 0.00 0.49 0.19 72 1015.6
20260906161034 64 5 3.0 9.0 0.00 0.49 0.19 71 1015.6
20260906160530 64 310 2.0 11.0 0.00 0.49 0.19 75 1015.5
20260906160046 63 316 3.0 11.0 0.00 0.49 0.19 78 1015.6
20260906155530 62 11 4.0 10.0 0.00 0.49 0.19 79 1015.7
20260906155030 61 29 2.0 9.0 0.00 0.49 0.19 80 1015.7
20260906154546 61 297 1.0 9.0 0.00 0.49 0.19 81 1015.8
20260906154030 61 281 3.0 9.0 0.00 0.49 0.19 79 1015.9
20260906153529 62 313 3.0 9.0 0.00 0.49 0.19 78 1015.9
20260906153108 63 250 2.0 8.0 0.00 0.49 0.19 78 1015.9
20260906152531 62 317 2.0 9.0 0.00 0.49 0.19 78 1015.9
20260906152031 62 315 3.0 9.0 0.00 0.49 0.19 80 1015.9
20260906151557 62 279 2.0 9.0 0.00 0.49 0.19 81 1015.8
20260906151030 62 0 1.0 10.0 0.00 0.49 0.19 82 1015.9
20260906150530 62 267 2.0 10.0 0.00 0.49 0.19 81 1015.9
20260906150046 61 311 3.0 10.0 0.00 0.49 0.19 82 1016.0
20260906145530 61 328 2.0 9.0 0.00 0.49 0.19 81 1016.0
20260906145030 60 53 1.0 9.0 0.00 0.49 0.19 85 1016.0
20260906144545 60 321 2.0 6.0 0.00 0.49 0.19 85 1016.1
20260906144029 59 300 2.0 7.0 0.00 0.49 0.19 87 1016.1
20260906143531 59 303 1.0 8.0 0.00 0.49 0.19 86 1016.1
20260906143051 59 346 3.0 8.0 0.00 0.49 0.19 87 1016.1
20260906142530 59 352 1.0 8.0 0.00 0.49 0.19 89 1016.0
20260906142033 59 333 2.0 8.0 0.00 0.49 0.19 89 1016.1
20260906141552 59 226 3.0 8.0 0.00 0.49 0.19 89 1016.0
20260906141030 58 23 2.0 6.0 0.00 0.49 0.19 93 1015.9
20260906140530 58 338 2.0 6.0 0.00 0.49 0.19 92 1016.0
20260906140047 58 273 1.0 4.0 0.00 0.49 0.19 94 1016.0
20260906135530 57 312 1.0 4.0 0.00 0.49 0.19 94 1015.9
20260906135031 57 232 1.0 4.0 0.00 0.49 0.19 95 1015.9
20260906134612 57 224 1.0 4.0 0.00 0.49 0.19 94 1015.7
20260906134030 56 326 2.0 4.0 0.00 0.49 0.19 94 1015.7
20260906133533 56 220 2.0 6.0 0.00 0.49 0.19 95 1015.8
20260906133056 56 252 1.0 6.0 0.00 0.49 0.19 95 1015.8
20260906132530 56 273 1.0 5.0 0.00 0.49 0.19 95 1016.0
20260906132031 56 266 1.0 5.0 0.00 0.49 0.19 95 1016.0
20260906131549 56 275 1.0 4.0 0.00 0.49 0.19 95 1016.1
20260906131030 56 22 2.0 4.0 0.00 0.49 0.19 96 1016.1
20260906130530 55 255 0.0 6.0 0.00 0.49 0.19 95 1016.1
20260906130049 55 246 1.0 6.0 0.00 0.49 0.19 96 1015.8
20260906125530 55 244 1.0 4.0 0.01 0.49 0.19 96 1015.8
20260906125031 55 269 2.0 4.0 0.01 0.49 0.19 96 1015.8
20260906124544 55 254 1.0 4.0 0.02 0.49 0.19 96 1015.8
20260906124028 55 232 1.0 4.0 0.03 0.49 0.19 96 1015.8
20260906123527 54 234 1.0 4.0 0.03 0.49 0.19 96 1015.8
20260906123054 54 252 0.0 3.0 0.03 0.49 0.19 96 1015.7
20260906122530 54 0 0.0 2.0 0.03 0.49 0.19 96 1015.6
20260906122030 54 325 0.0 2.0 0.03 0.49 0.19 96 1015.6
20260906121544 54 17 0.0 2.0 0.04 0.49 0.19 96 1015.7
20260906121027 54 0 0.0 2.0 0.05 0.49 0.19 96 1015.7
20260906120529 54 17 0.0 2.0 0.05 0.49 0.19 97 1015.7
20260906120057 54 0 0.0 1.0 0.05 0.49 0.19 97 1015.8
20260906115530 54 0 0.0 3.0 0.04 0.48 0.18 96 1015.8
20260906115029 54 17 1.0 4.0 0.04 0.48 0.18 96 1015.9
20260906114543 54 78 0.0 4.0 0.03 0.47 0.17 97 1015.7
20260906114030 54 0 1.0 4.0 0.03 0.46 0.16 97 1015.9
20260906113528 54 0 0.0 3.0 0.03 0.46 0.16 97 1015.8
20260906113045 54 0 0.0 4.0 0.05 0.46 0.16 97 1015.6
20260906112531 54 0 1.0 4.0 0.06 0.46 0.16 97 1015.5
20260906112028 54 333 0.0 1.0 0.05 0.45 0.15 97 1015.5
20260906111549 54 0 0.0 1.0 0.06 0.45 0.15 97 1015.5
20260906111031 54 0 0.0 1.0 0.06 0.44 0.14 97 1015.5
20260906110527 54 0 0.0 1.0 0.06 0.44 0.14 97 1015.4
20260906110054 54 0 0.0 0.0 0.06 0.44 0.14 97 1015.3
20260906105530 54 0 0.0 0.0 0.06 0.44 0.14 97 1015.2
20260906105032 54 0 0.0 0.0 0.06 0.44 0.14 96 1015.2
20260906104545 54 0 0.0 0.0 0.06 0.44 0.14 96 1015.0
20260906104030 54 0 0.0 0.0 0.06 0.43 0.13 96 1015.1
20260906103529 54 0 0.0 1.0 0.07 0.43 0.13 96 1015.0
20260906103058 54 0 0.0 2.0 0.06 0.41 0.11 97 1015.1
20260906102532 54 0 0.0 2.0 0.05 0.40 0.10 97 1015.0
20260906102028 54 5 0.0 2.0 0.05 0.40 0.10 96 1015.0
20260906101544 54 5 0.0 1.0 0.04 0.39 0.09 96 1014.9
20260906101029 54 0 0.0 0.0 0.03 0.38 0.08 96 1014.8
20260906100532 54 0 0.0 0.0 0.03 0.38 0.08 96 1014.7
20260906100052 54 0 0.0 0.0 0.03 0.38 0.08 96 1014.7
20260906095530 54 0 0.0 0.0 0.03 0.38 0.08 96 1014.7
20260906095030 54 0 0.0 0.0 0.03 0.38 0.08 96 1014.6
20260906094544 54 0 0.0 0.0 0.03 0.38 0.08 96 1014.6
20260906094030 54 0 0.0 1.0 0.02 0.37 0.07 96 1014.6
20260906093534 54 0 0.0 1.0 0.01 0.36 0.06 96 1014.6
20260906093046 54 0 0.0 1.0 0.00 0.35 0.05 96 1014.6
20260906092530 54 0 0.0 1.0 0.00 0.35 0.05 96 1014.6
20260906092034 54 0 0.0 0.0 0.00 0.35 0.05 96 1014.5
20260906091550 54 0 0.0 0.0 0.00 0.35 0.05 96 1014.4
20260906091028 54 0 0.0 0.0 0.00 0.35 0.05 96 1014.2
20260906090528 54 0 0.0 0.0 0.01 0.35 0.05 96 1014.1
20260906090106 54 0 0.0 0.0 0.01 0.35 0.05 96 1014.1
20260906085528 54 0 0.0 1.0 0.01 0.35 0.05 96 1014.0
20260906085028 54 0 0.0 2.0 0.01 0.35 0.05 96 1014.1
20260906084545 55 5 0.0 2.0 0.01 0.35 0.05 96 1014.1
20260906084030 55 0 0.0 2.0 0.01 0.35 0.05 96 1014.1
20260906083531 55 0 0.0 1.0 0.01 0.35 0.05 96 1014.1
20260906083053 55 0 0.0 1.0 0.01 0.35 0.05 96 1014.1
20260906082527 55 0 0.0 1.0 0.01 0.35 0.05 96 1014.1
20260906082033 55 0 0.0 1.0 0.01 0.35 0.05 96 1014.1
20260906081547 55 0 0.0 1.0 0.01 0.35 0.05 96 1014.1
20260906081029 55 0 0.0 1.0 0.01 0.35 0.05 96 1014.1
20260906080529 55 0 0.0 1.0 0.01 0.34 0.04 96 1014.0
20260906080106 55 0 0.0 1.0 0.01 0.34 0.04 96 1013.9
20260906075529 55 0 0.0 1.0 0.01 0.34 0.04 96 1013.9
20260906075029 55 0 0.0 1.0 0.01 0.34 0.04 96 1013.9
20260906074603 55 80 0.0 1.0 0.01 0.34 0.04 96 1013.9
20260906074030 55 0 0.0 1.0 0.02 0.34 0.04 96 1013.9
20260906073527 56 0 0.0 1.0 0.02 0.34 0.04 96 1013.8
20260906073057 56 0 0.0 1.0 0.03 0.34 0.04 96 1013.9
20260906072530 56 0 0.0 1.0 0.03 0.34 0.04 96 1013.9
20260906072030 56 0 0.0 1.0 0.03 0.34 0.04 96 1014.0
20260906071543 56 0 0.0 0.0 0.03 0.34 0.04 96 1013.9
20260906071030 56 0 0.0 0.0 0.03 0.34 0.04 96 1013.9
20260906070530 56 0 0.0 0.0 0.03 0.33 0.03 96 1013.9
20260906070052 56 0 0.0 0.0 0.03 0.33 0.03 96 1014.0
20260906065528 56 0 0.0 2.0 0.03 0.33 0.03 96 1013.8
20260906065028 56 0 0.0 2.0 0.03 0.33 0.03 96 1013.8
20260906064627 57 78 0.0 2.0 0.03 0.33 0.03 96 1013.9
20260906064029 57 0 0.0 1.0 0.02 0.32 0.02 97 1014.0
20260906063530 57 306 0.0 1.0 0.01 0.31 0.01 97 1013.9
20260906063048 57 0 0.0 2.0 0.01 0.31 0.01 97 1013.8
20260906062530 57 0 0.0 4.0 0.01 0.31 0.01 97 1013.8
20260906062030 57 0 1.0 4.0 0.01 0.31 0.01 96 1013.7
20260906061546 57 274 1.0 2.0 0.01 0.31 0.01 97 1013.7
20260906061029 57 0 0.0 2.0 0.01 0.31 0.01 97 1013.7
20260906060532 57 0 0.0 2.0 0.00 0.30 0.00 97 1013.5
20260906060052 57 311 0.0 1.0 0.00 0.30 0.00 96 1013.6
20260906055527 57 0 0.0 0.0 0.00 0.30 0.00 96 1013.6
20260906055030 57 0 0.0 0.0 0.00 0.30 0.00 96 1013.5
20260906054550 57 0 0.0 0.0 0.00 0.30 0.00 96 1013.5
20260906054030 57 0 0.0 1.0 0.00 0.30 0.00 96 1013.7
20260906053527 57 0 0.0 1.0 0.00 0.30 0.00 96 1013.7
20260906053043 57 0 0.0 1.0 0.00 0.30 0.00 96 1013.7
20260906052535 57 0 0.0 1.0 0.00 0.30 0.00 96 1013.7
20260906052028 57 0 0.0 1.0 0.00 0.30 0.00 96 1013.8
20260906051555 57 0 0.0 0.0 0.00 0.30 0.00 96 1013.7
20260906051033 57 0 0.0 1.0 0.00 0.30 0.00 96 1013.7
20260906050528 57 0 0.0 1.0 0.00 0.30 0.00 96 1013.7
20260906045529 57 0 0.0 1.0 0.00 0.30 0.00 96 1013.8
20260906045030 57 0 0.0 1.0 0.00 0.30 0.00 96 1013.7
20260906044551 57 0 0.0 1.0 0.00 0.30 0.00 96 1013.8
20260906044113 57 0 0.0 2.0 0.00 0.30 0.00 96 1013.8
20260906043532 57 0 0.0 2.0 0.00 0.30 0.00 96 1013.9
20260906043050 57 0 0.0 1.0 0.00 0.30 0.00 96 1013.8
20260906042529 57 311 0.0 1.0 0.00 0.30 0.00 96 1013.9
20260906042030 57 0 0.0 1.0 0.00 0.30 0.00 96 1013.8
20260906041540 57 0 0.0 1.0 0.00 0.30 0.00 96 1013.8
20260906041030 57 0 0.0 0.0 0.00 0.30 0.00 96 1013.8
20260906040529 57 0 0.0 0.0 0.00 0.30 0.00 96 1013.8
20260906040053 57 0 0.0 0.0 0.00 0.30 0.00 96 1013.7
20260906035531 57 0 0.0 0.0 0.00 0.30 0.30 96 1013.7
20260906035029 57 0 0.0 0.0 0.00 0.30 0.30 96 1013.6
20260906034606 57 0 0.0 1.0 0.00 0.30 0.30 96 1013.7
20260906034031 57 0 0.0 1.0 0.00 0.30 0.30 96 1013.6
20260906033530 57 0 0.0 1.0 0.00 0.30 0.30 96 1013.7
20260906033045 57 0 0.0 1.0 0.00 0.30 0.30 96 1013.5
20260906032529 57 0 0.0 1.0 0.00 0.30 0.30 96 1013.6
20260906032030 57 0 0.0 0.0 0.00 0.30 0.30 96 1013.5
20260906031552 57 0 0.0 0.0 0.00 0.30 0.30 96 1013.4
20260906031029 57 0 0.0 0.0 0.00 0.30 0.30 96 1013.5
20260906030533 57 0 0.0 0.0 0.00 0.30 0.30 96 1013.3
20260906030050 57 0 0.0 1.0 0.00 0.30 0.30 96 1013.2
20260906025530 57 0 0.0 2.0 0.00 0.30 0.30 96 1013.3
20260906025027 57 0 0.0 2.0 0.00 0.30 0.30 96 1013.4
20260906024544 57 0 0.0 2.0 0.00 0.30 0.30 96 1013.3
20260906024030 57 0 0.0 2.0 0.00 0.30 0.30 96 1013.4
20260906023530 57 0 0.0 1.0 0.00 0.30 0.30 96 1013.4
20260906023043 57 0 0.0 1.0 0.00 0.30 0.30 96 1013.3
20260906022532 57 215 0.0 1.0 0.00 0.30 0.30 96 1013.4
20260906022030 57 0 0.0 1.0 0.00 0.30 0.30 96 1013.5
20260906021543 57 0 0.0 1.0 0.01 0.30 0.30 96 1013.6
20260906021029 57 0 0.0 3.0 0.01 0.30 0.30 96 1013.5
20260906020529 57 0 0.0 3.0 0.01 0.30 0.30 96 1013.4
20260906020058 57 0 1.0 3.0 0.01 0.30 0.30 95 1013.5
20260906015529 57 0 0.0 0.0 0.02 0.30 0.30 96 1013.6
20260906015029 57 0 0.0 0.0 0.02 0.30 0.30 96 1013.5
20260906014544 57 0 0.0 0.0 0.02 0.30 0.30 95 1013.6
20260906014029 57 0 0.0 0.0 0.02 0.30 0.30 95 1013.6
20260906013530 57 0 0.0 0.0 0.02 0.30 0.30 95 1013.6
20260906013058 57 0 0.0 0.0 0.02 0.30 0.30 95 1013.6
20260906012529 57 0 0.0 0.0 0.02 0.30 0.30 95 1013.7
20260906012029 57 0 0.0 0.0 0.03 0.30 0.30 95 1013.7
20260906011546 57 0 0.0 0.0 0.03 0.29 0.29 95 1013.6
20260906011030 57 0 0.0 0.0 0.04 0.29 0.29 95 1013.6
20260906010529 57 0 0.0 0.0 0.05 0.29 0.29 95 1013.6
20260906010049 57 0 0.0 0.0 0.05 0.29 0.29 95 1013.5
20260906005527 57 0 0.0 0.0 0.04 0.28 0.28 95 1013.5
20260906005030 57 0 0.0 0.0 0.04 0.28 0.28 95 1013.4
20260906004540 57 0 0.0 0.0 0.04 0.28 0.28 95 1013.5
20260906004027 57 0 0.0 0.0 0.04 0.28 0.28 95 1013.4
20260906003529 57 0 0.0 2.0 0.04 0.28 0.28 95 1013.3
20260906003050 57 0 0.0 2.0 0.04 0.28 0.28 94 1013.3
20260906002531 58 261 0.0 2.0 0.03 0.27 0.27 94 1013.2
20260906002029 58 261 0.0 2.0 0.03 0.27 0.27 94 1013.2
20260906001548 58 261 0.0 2.0 0.03 0.26 0.26 94 1013.2
20260906001027 58 0 0.0 4.0 0.05 0.25 0.25 94 1013.2
20260906000530 58 274 0.0 4.0 0.06 0.24 0.24 94 1013.1
20260906000052 58 60 1.0 4.0 0.11 0.24 0.24 94 1013.0
20260905235530 58 15 0.0 3.0 0.19 0.24 0.24 94 1012.9
20260905235030 58 57 1.0 3.0 0.24 0.24 0.24 93 1012.9
20260905234618 59 241 0.0 3.0 0.24 0.24 0.24 93 1012.9
20260905234030 59 29 0.0 5.0 0.24 0.24 0.24 93 1013.0
20260905233530 59 13 0.0 5.0 0.24 0.24 0.24 93 1012.9
20260905233050 59 0 0.0 4.0 0.24 0.24 0.24 93 1012.9
20260905232529 59 279 1.0 3.0 0.24 0.24 0.24 93 1012.7
20260905232029 59 221 0.0 4.0 0.23 0.23 0.23 92 1012.5
20260905231548 60 0 0.0 4.0 0.22 0.22 0.22 92 1012.5
20260905231028 60 0 0.0 8.0 0.20 0.20 0.20 91 1012.5
20260905230530 60 0 2.0 8.0 0.18 0.18 0.18 91 1012.5
20260905230045 61 59 0.0 10.0 0.12 0.12 0.12 89 1012.6
20260905225529 61 51 2.0 10.0 0.04 0.04 0.04 88 1012.6
20260905225029 62 336 2.0 9.0 0.00 0.00 0.00 86 1012.7
20260905224552 62 347 3.0 9.0 0.00 0.00 0.00 85 1012.3
20260905224029 63 0 1.0 4.0 0.00 0.00 0.00 85 1011.9
20260905223529 63 312 1.0 4.0 0.00 0.00 0.00 84 1012.0
20260905223052 63 262 1.0 3.0 0.00 0.00 0.00 83 1011.9
20260905222531 64 252 1.0 4.0 0.00 0.00 0.00 83 1011.8
20260905222027 64 248 0.0 4.0 0.00 0.00 0.00 83 1011.8
20260905221543 64 0 1.0 4.0 0.00 0.00 0.00 82 1011.8
20260905221030 65 221 1.0 4.0 0.00 0.00 0.00 81 1011.8
20260905220529 65 224 1.0 4.0 0.00 0.00 0.00 80 1011.8
20260905220044 66 226 1.0 4.0 0.00 0.00 0.00 80 1011.7
20260905215530 66 0 0.0 0.0 0.00 0.00 0.00 79 1011.6
20260905215030 67 0 0.0 1.0 0.00 0.00 0.00 79 1011.8
20260905214539 67 0 0.0 2.0 0.00 0.00 0.00 77 1011.7
20260905214029 67 0 0.0 2.0 0.00 0.00 0.00 75 1011.6
20260905213530 68 0 0.0 2.0 0.00 0.00 0.00 75 1011.6
20260905213047 68 0 0.0 1.0 0.00 0.00 0.00 74 1011.5
20260905212527 68 0 0.0 2.0 0.00 0.00 0.00 75 1011.3
20260905212029 69 0 0.0 3.0 0.00 0.00 0.00 73 1011.4
20260905211725 69 101 0.0 3.0 0.00 0.00 0.00 72 1011.3
20260905211029 69 76 0.0 3.0 0.00 0.00 0.00 72 1011.3
20260905210529 69 0 1.0 3.0 0.00 0.00 0.00 72 1011.3
20260905210101 69 90 1.0 3.0 0.00 0.00 0.00 73 1011.3